Dewpoint
45 46 45 45 46 47 47 48 50 51 54 54 55 54 55 54 54 55 56 58 59 60 59 59 59 60 59 58 57 57 56 55 54 54 57 59 59 60 61 61 62 62 62
41 43 46 45 45 47 47 47 48 51 51 53 54 54 55 54 54 54 55 57 57 58 58 57 58 58 57 56 56 55 56 59 56 54 57 57 58 57 57 55 56 60 61
40 40 40 40 40 41 45 47 47 48 50 50 52 54 55 54 53 54 55 57 57 58 57 58 57 57 56 55 56 56 58 60 58 57 56 54 56 56 55 55 57 58 61
39 39 39 39 40 40 41 43 45 47 47 48 49 53 53 53 54 54 55 55 56 58 58 58 57 57 56 55 56 56 58 58 58 57 56 54 55 55 56 55 55 56 57
39 39 39 40 40 41 42 43 44 46 47 48 48 49 52 53 53 54 54 54 55 56 57 58 58 58 57 55 56 56 57 57 56 56 55 53 53 51 51 53 52 53 54
39 39 39 39 40 41 42 42 43 43 44 45 46 47 47 49 50 49 52 52 53 54 55 57 57 56 55 53 54 54 58 57 55 55 55 53 49 48 51 51 51 50 44
40 40 40 40 40 40 40 40 41 41 41 41 44 45 45 47 46 46 48 50 52 53 53 54 55 57 55 55 53 53 54 53 54 56 52 49 46 48 51 49 50 50 49
39 39 39 39 38 38 39 38 38 38 38 38 39 42 44 44 43 43 45 47 49 51 52 53 53 53 55 57 57 55 55 56 56 56 52 46 45 50 52 52 50 49 51
37 37 37 37 36 36 37 37 36 36 37 37 39 40 41 41 41 41 43 47 48 49 52 53 53 54 51 48 57 56 56 56 51 48 44 44 44 47 51 51 49 49 48
37 37 37 36 37 37 37 39 38 37 41 41 39 40 41 41 42 41 42 45 49 50 51 52 50 52 48 46 56 54 51 48 48 47 48 47 47 47 48 49 49 48 49
36 37 37 35 35 36 36 36 34 35 35 36 41 40 41 43 42 41 41 44 47 50 51 52 54 48 46 44 47 51 48 46 47 46 47 49 49 49 49 48 50 50 50
37 37 35 35 35 37 36 35 35 36 40 40 42 43 41 40 41 41 41 42 45 50 51 52 53 46 45 44 46 42 42 47 50 50 50 49 49 49 50 50 50 50 52
35 34 34 35 35 35 36 35 33 33 34 39 41 41 39 40 42 42 41 41 42 45 53 51 48 44 44 45 44 43 45 51 51 50 50 50 50 50 50 50 51 51 52
34 33 34 35 35 36 37 36 36 35 34 33 38 39 38 38 39 42 42 42 42 46 50 53 50 47 47 48 47 46 51 53 52 51 50 50 50 50 50 50 51 52 53
33 33 33 33 34 34 36 37 37 38 39 38 35 35 38 41 42 41 42 45 46 46 50 52 53 53 52 48 47 48 48 51 52 52 51 50 50 49 49 49 50 50 53
32 32 33 33 33 34 35 35 37 37 38 38 37 38 40 40 39 39 39 39 39 41 48 50 51 52 52 50 49 49 49 50 51 52 50 50 49 50 50 50 50 50 51
31 31 31 32 32 33 33 34 34 37 38 38 37 37 37 38 38 37 37 37 38 42 48 49 50 51 52 51 51 50 50 51 52 53 52 50 50 50 47 49 49 50 52
30 32 32 32 33 33 33 33 34 34 35 37 38 38 38 38 38 37 38 40 41 41 42 48 49 51 52 52 52 51 51 50 51 51 50 50 50 49 48 48 49 49 50
31 32 33 34 34 34 34 34 35 35 35 37 38 38 38 37 37 38 38 40 41 41 41 42 45 50 51 52 52 52 51 51 50 50 49 49 49 49 49 49 49 44 45
31 32 34 34 35 36 35 35 34 35 35 36 37 38 39 38 37 38 39 40 39 41 42 41 42 44 50 51 51 52 52 50 50 50 49 49 49 50 49 49 50 51 52
31 33 34 36 40 38 38 36 36 35 35 36 37 39 37 40 39 39 38 39 39 40 41 42 42 43 45 50 50 51 52 51 51 50 50 50 50 50 50 50 50 50 50
33 35 40 44 45 44 41 40 39 37 36 37 37 38 34 39 40 39 39 39 40 41 42 42 42 43 44 47 49 48 48 49 50 50 51 51 51 51 50 50 51 51 52
36 38 39 41 43 41 44 41 40 38 37 37 38 38 38 39 40 39 39 40 41 41 42 42 42 42 45 46 48 48 46 47 49 51 51 51 51 51 52 51 52 52 52
35 37 37 39 39 40 42 41 40 37 38 38 38 39 39 39 40 41 39 40 41 41 42 42 42 42 43 46 47 47 46 48 51 53 52 52 51 49 52 52 53 53 51
33 34 35 36 37 37 39 41 42 42 41 39 39 40 40 40 40 40 41 40 41 41 41 42 43 44 43 46 46 47 43 37 49 45 53 52 52 52 53 53 53 52 50
31 32 32 33 34 35 36 37 39 42 43 42 42 41 41 40 40 42 42 42 41 41 41 42 44 44 44 46 47 41 36 35 41 39 52 53 53 53 53 53 52 51 49
Lifted_Index
4 4 3 3 3 4 4 4 4 4 5 5 6 6 7 7 8 8 7 6 5 4 3 2 0 -1 -2 -2 -1 -0 1 2 2 3 3 3 3 3 2 2 3 3 2
4 4 4 4 4 4 5 5 5 5 5 6 6 6 6 7 7 7 6 5 4 4 3 2 1 -1 -1 -1 -1 -0 1 1 2 2 2 2 2 2 1 2 3 3 2
4 4 5 5 5 5 6 6 6 6 6 6 6 5 5 6 6 6 5 4 4 3 3 2 1 -0 -1 -1 -1 -0 1 1 1 1 1 1 1 1 0 1 2 2 2
5 5 6 6 6 7 7 8 7 7 7 7 6 5 5 5 5 4 4 4 3 2 2 2 1 0 -0 -1 -1 -0 0 0 0 -0 0 0 0 0 0 0 1 1 1
6 7 7 7 8 8 9 9 9 9 8 7 7 6 5 5 4 3 3 3 3 2 1 1 1 0 -0 -0 -0 -0 0 0 0 0 0 0 1 0 0 0 1 2 2
8 8 9 9 9 10 10 10 10 10 9 9 8 7 6 6 5 4 3 3 3 2 1 1 1 0 -0 -0 0 0 0 0 0 0 0 0 1 0 1 1 2 3 4
10 10 10 10 11 11 11 11 11 11 10 10 9 8 8 7 6 5 4 4 3 2 1 1 1 1 0 0 0 1 1 0 -0 -0 -0 0 0 1 2 3 4 4 5
11 11 11 11 11 11 11 11 11 11 11 10 10 9 8 7 6 6 5 5 4 3 2 1 1 1 1 0 0 0 0 0 -0 -1 -1 0 1 2 3 3 4 5 5
11 11 11 11 11 11 12 12 13 12 12 11 10 9 9 7 7 6 6 5 4 3 2 1 1 2 1 1 -0 -1 -1 -1 -1 -0 1 2 3 3 3 3 4 4 4
10 11 11 12 12 12 13 14 15 14 13 11 10 10 9 8 7 7 7 6 4 3 2 1 1 1 1 1 -0 -1 -1 -1 -0 1 2 3 3 3 2 3 3 3 4
10 11 11 12 12 13 14 16 16 15 14 12 11 10 9 9 8 8 8 7 5 3 1 1 1 1 1 0 -0 -1 -1 -1 1 2 3 2 2 2 2 2 3 3 3
11 11 11 11 12 13 14 15 15 15 14 12 11 10 10 9 9 9 8 7 5 3 2 1 2 1 1 0 -0 -1 -0 1 2 2 1 1 2 1 1 1 1 2 3
11 10 11 11 12 13 13 14 14 14 13 12 11 11 10 10 10 9 8 7 5 3 2 1 1 1 1 0 -0 -0 1 1 1 1 1 1 1 1 0 0 0 1 2
10 10 10 10 11 12 12 13 13 13 13 12 12 11 11 10 10 9 9 7 5 3 2 1 1 1 1 0 0 0 1 1 0 0 0 0 -0 -0 -0 -1 -0 1 1
9 9 9 9 9 10 10 11 12 13 13 13 12 12 11 10 10 9 9 8 6 4 3 2 1 1 1 0 0 0 0 0 -0 -0 -0 -0 -1 -1 -1 -1 -1 0 1
8 8 8 7 7 8 8 9 10 11 13 13 13 12 11 10 10 10 9 8 7 5 4 3 2 1 1 1 1 0 0 0 0 0 -0 -0 -1 -1 -1 -1 -1 0 1
8 7 6 6 6 7 7 7 8 9 10 12 12 12 11 11 10 10 9 8 7 6 5 3 2 2 1 1 0 0 0 0 1 0 0 -0 -0 -1 -1 -1 -0 1 1
7 7 6 6 6 7 7 6 6 7 7 9 11 12 12 11 11 10 9 8 7 6 5 4 3 2 1 1 0 0 0 0 0 0 0 0 -0 -0 -0 -0 0 1 2
7 6 6 6 6 7 7 6 6 6 6 7 9 11 11 11 11 10 9 8 8 7 6 5 3 2 1 1 0 0 0 0 0 0 0 0 1 1 0 0 1 1 2
7 6 6 6 6 7 7 7 7 6 6 6 8 10 11 11 11 10 9 9 8 7 6 5 4 3 1 1 0 0 -0 -0 -0 0 0 0 1 1 1 1 1 1 2
7 7 6 6 7 7 7 7 7 7 7 7 8 9 11 11 10 10 9 9 9 8 7 6 5 3 1 0 0 -0 -0 -0 -0 -0 0 0 0 1 1 1 1 1 2
8 7 7 6 7 7 8 7 7 7 7 7 8 9 11 11 11 10 10 10 10 9 8 6 5 3 1 0 -0 -0 -0 -0 -0 -0 -0 -0 0 1 1 1 1 2 2
8 7 7 7 7 7 8 8 7 7 7 7 8 9 10 11 11 11 11 10 10 9 8 7 5 3 1 0 -0 -0 -0 0 -0 -0 -0 0 0 1 1 1 1 2 3
8 8 7 7 7 7 7 8 8 8 7 8 8 9 10 11 11 11 11 10 9 9 8 7 5 3 2 1 0 -0 0 1 1 0 0 1 1 1 1 1 1 2 3
8 8 7 6 6 6 7 8 8 8 8 9 9 9 10 10 11 11 11 10 9 9 8 7 5 3 2 1 1 1 1 1 1 1 1 1 1 1 1 1 1 2 3
8 7 7 6 6 6 7 8 8 9 9 9 9 9 9 10 10 11 11 10 9 9 8 7 6 4 2 2 1 1 2 2 2 2 2 2 1 1 1 1 1 2 3